Regional Weather Roundup
Issued by NWS

Home | Current Version | Previous Version | Graphics & Text | Print | Product List | Glossary On
Versions: 1 2 3 4 5 6 7 8 9 10 11 12 13 14 15 16 17 18 19 20 21 22 23 24 25 26 27 28 29 30 31 32 33 34 35 36 37 38 39 40 41 42 43 44 45 46 47 48 49 50
000
ASUS43 KLSX 181707
RWRMO

WEATHER SUMMARY FOR MISSOURI
NATIONAL WEATHER SERVICE SPRINGFIELD MO
1200 PM CDT THU SEP 18 2014

NOTE: "FAIR" INDICATES FEW OR NO CLOUDS BELOW 12,000 FEET WITH NO
       SIGNIFICANT WEATHER AND/OR OBSTRUCTIONS TO VISIBILITY.
       CURRENT SKY AND/OR WEATHER CONDITIONS ARE NOT AVAILABLE FOR
       CHILLICOTHE AND FARMINGTON.

MOZ001>031-035>038-043-044-053-054-181800-
...NORTHERN AND WESTERN MISSOURI...

CITY           SKY/WX    TMP DP  RH WIND       PRES   REMARKS
KANSAS CTY INT CLOUDY    64  60  87 E9        30.04S
KANSAS C DTWN  CLOUDY    66  60  81 E8        30.03S
LEE`S SUMMIT   CLOUDY    64  61  90 E10       30.04S
ST JOSEPH      CLOUDY    61  58  90 SE7       30.06S
CHILLICOTHE      N/A     64  57  78 E7        30.08S
KIRKSVILLE     CLOUDY    65  57  75 SE10      30.09F

$$
MOZ066>068-077>081-088>096-101>105-181800-
...SOUTHWEST MISSOURI...

CITY           SKY/WX    TMP DP  RH WIND       PRES   REMARKS
SPRINGFIELD    CLOUDY    71  63  75 E7        30.00R
JOPLIN         CLOUDY    69  65  86 N8        29.99R

$$
MOZ032>034-039>042-045>050-055>058-069>072-181800-
...CENTRAL MISSOURI...

CITY           SKY/WX    TMP DP  RH WIND       PRES   REMARKS
COLUMBIA       CLOUDY    64  60  87 SE9       30.06F
JEFFERSON CITY CLOUDY    66  59  78 E8        30.05F
ROLLA          CLOUDY    63  59  87 E9        30.04F
SEDALIA        CLOUDY    64  60  87 E6        30.05S
OSAGE BEACH    CLOUDY    66  59  77 E9        30.04S

$$
MOZ051-052-059>065-181800-
...EAST CENTRAL MISSOURI...

CITY           SKY/WX    TMP DP  RH WIND       PRES   REMARKS
ST LOUIS INTL  PTSUNNY   68  55  63 E9        30.09S
SPIRIT OF STL  PTSUNNY   69  56  62 E9        30.06F
ST CHARLES     CLOUDY    66  55  67 VRB7      30.08F

$$
MOZ072>076-082>087-097>100-106>115-181800-
...SOUTH CENTRAL AND SOUTHEAST MISSOURI...

CITY           SKY/WX    TMP DP  RH WIND       PRES   REMARKS
CAPE GIRARDEAU CLOUDY    71  58  63 NE6       30.04S
FARMINGTON     PTSUNNY   70  57  64 E8G17     30.07F
POPLAR BLUFF   CLOUDY    70  57  63 E9        30.01F
WEST PLAINS    CLOUDY    62  59  90 E9        30.05S FOG

$$



USA.gov is the U.S. government's official web portal to all federal, state and local government web resources and services.